Vorticity
5 5 9 8 10 8 9 12 11 12 11 12 5 3 3 3 6 4 5 6 13 11 11 11 7 16 17 13 13 10 11 2 -0 7 -1 1 2 4 3 14 8 10 10 5 6
8 5 5 9 10 9 8 11 10 14 8 13 4 3 3 3 4 4 4 7 10 12 14 12 8 17 14 7 11 13 10 10 7 9 5 6 4 0 -2 18 8 10 9 6 6
9 9 7 6 10 9 7 7 9 10 11 8 4 4 4 4 5 5 4 7 8 14 14 12 11 11 16 12 8 7 6 7 10 10 7 12 6 2 -1 17 11 10 6 7 5
5 5 8 10 10 11 9 6 7 7 9 8 6 5 4 4 4 5 4 6 8 13 13 14 12 8 13 15 17 16 16 20 28 22 15 14 5 6 -0 14 9 9 8 5 6
6 6 6 9 10 11 10 9 6 6 7 8 5 5 3 4 4 5 4 6 7 12 14 14 11 10 8 9 7 13 11 18 16 13 10 7 9 7 7 11 10 9 6 6 6
3 4 4 6 8 13 10 9 7 7 5 8 6 5 3 3 4 5 4 5 7 9 13 15 16 12 10 9 12 8 6 9 12 7 7 11 7 22 14 8 9 8 6 6 5
2 3 3 5 7 13 14 8 8 7 8 7 7 7 5 2 5 6 4 5 7 7 11 12 12 11 12 9 10 11 12 9 8 10 11 13 18 7 10 10 10 6 5 5 5
2 2 2 3 6 7 14 14 8 7 7 7 8 9 9 4 8 8 5 5 6 7 9 12 13 11 12 10 10 10 12 12 13 16 15 9 11 14 6 9 7 6 5 5 5
5 5 6 5 4 6 8 16 12 8 6 6 7 8 9 9 7 5 5 7 6 7 7 11 10 13 15 16 15 15 15 15 19 9 7 13 12 6 9 10 7 5 5 4 4
7 6 6 8 6 5 6 9 19 8 8 7 5 7 7 8 7 8 5 4 7 7 7 7 8 11 11 11 11 12 14 16 15 13 12 10 7 8 8 11 7 7 5 4 4
7 7 6 5 7 8 7 6 16 16 7 8 7 6 4 8 8 6 7 5 5 7 7 4 6 9 7 9 6 6 6 6 7 7 6 7 9 10 10 7 6 6 5 4 2
6 3 4 5 5 7 9 8 6 16 11 9 9 8 9 7 7 7 8 6 6 6 7 5 4 6 6 4 5 4 4 6 6 7 7 9 10 9 9 7 5 3 3 4 4
3 4 9 7 5 6 7 7 9 4 15 10 9 8 10 9 8 8 6 4 5 7 5 7 6 4 4 4 3 3 3 3 6 7 9 10 9 12 7 7 4 7 3 7 6
5 6 6 4 3 3 5 8 7 11 9 12 15 15 9 9 10 9 10 7 7 8 10 6 6 5 4 4 4 4 5 6 5 9 8 9 12 10 10 4 6 -4 11 4 6
7 9 2 1 2 2 3 1 0 6 4 12 7 3 7 16 13 7 5 7 5 6 10 13 7 6 6 5 5 6 5 6 8 9 9 14 12 11 10 8 -0 9 5 10 9
6 6 1 3 0 2 0 0 -1 2 2 7 6 14 10 11 8 12 16 13 9 8 4 10 12 11 6 6 7 7 7 9 10 12 9 11 15 6 7 6 -0 7 6 7 12
2 2 2 0 -0 -2 -2 -2 -0 -2 -3 0 0 -0 6 4 3 3 3 5 8 18 10 7 9 10 12 8 5 7 7 8 10 12 11 10 11 10 7 3 4 7 14 8 9
3 2 4 7 4 -1 -6 -1 -3 2 3 1 1 2 3 4 7 6 7 6 6 7 15 16 8 10 6 13 12 7 6 8 10 11 9 11 14 12 7 5 -0 5 5 11 15
7 5 1 -2 -3 -2 -1 -3 5 9 5 7 4 0 2 2 1 5 7 4 2 2 2 8 19 8 11 6 10 14 11 6 8 12 13 8 1 8 5 5 7 9 11 13 11
12 7 6 7 9 10 10 13 15 14 8 8 6 7 3 1 0 2 3 6 6 4 6 5 5 19 9 12 8 10 11 6 8 13 12 10 8 -4 7 6 7 7 6 8 6
7 9 10 11 10 10 10 10 9 9 9 7 8 8 9 8 3 2 4 4 3 5 5 3 5 6 16 9 9 8 10 11 6 8 11 13 3 9 7 4 7 6 9 10 7
6 9 7 8 6 6 6 4 3 4 5 6 4 4 3 4 7 6 1 5 5 4 2 6 4 4 4 13 9 8 10 10 10 10 9 14 10 13 8 9 6 6 7 7 8
8 12 12 10 8 8 7 8 8 7 6 6 2 1 2 2 3 2 2 -2 1 3 6 5 6 5 5 6 11 9 9 8 9 8 9 14 8 10 8 7 7 7 5 4 5
8 8 9 8 9 6 7 6 7 3 9 8 9 9 8 4 5 1 2 3 -1 0 1 4 3 1 4 4 5 6 8 9 10 10 3 12 6 4 4 9 8 8 6 5 5
5 6 6 4 5 5 4 3 3 6 2 7 5 4 4 5 7 11 8 9 11 5 1 4 1 2 -1 3 4 5 7 9 9 10 11 -7 17 1 12 14 6 10 8 5 3
5 5 6 4 1 5 8 6 4 10 6 7 8 4 8 7 3 2 4 4 2 9 10 9 6 4 3 1 4 6 6 6 10 18 17 4 16 -2 2 12 17 10 9 9 3
10 10 7 8 8 9 9 14 12 6 9 5 10 10 7 10 11 5 6 4 1 0 5 6 8 8 7 2 6 12 -6 5 5 8 15 24 -15 11 10 13 11 12 14 9 4
Height
5873 5871 5870 5868 5866 5865 5864 5863 5863 5863 5863 5864 5865 5867 5866 5865 5864 5861 5858 5856 5852 5849 5846 5845 5844 5844 5845 5847 5850 5854 5858 5859 5863 5867 5872 5875 5877 5880 5882 5881 5882 5883 5884 5886 5887
5872 5871 5869 5867 5866 5865 5864 5863 5863 5863 5863 5864 5865 5866 5866 5865 5863 5861 5858 5855 5851 5848 5847 5845 5844 5843 5845 5846 5849 5851 5854 5855 5860 5864 5868 5872 5875 5878 5880 5880 5881 5882 5884 5886 5888
5873 5871 5870 5868 5866 5865 5864 5864 5863 5863 5863 5864 5865 5865 5865 5864 5863 5861 5858 5855 5851 5849 5846 5845 5844 5843 5843 5845 5848 5850 5851 5853 5857 5862 5866 5870 5872 5876 5878 5879 5881 5882 5884 5886 5888
5873 5871 5869 5868 5866 5865 5864 5864 5863 5863 5863 5864 5864 5864 5863 5863 5864 5860 5858 5855 5852 5849 5847 5845 5844 5844 5843 5843 5845 5848 5849 5851 5854 5859 5863 5867 5869 5873 5877 5878 5880 5881 5883 5886 5888
5873 5871 5870 5868 5866 5865 5864 5864 5863 5863 5863 5863 5863 5863 5863 5863 5862 5860 5858 5856 5853 5850 5847 5845 5844 5843 5844 5843 5844 5845 5848 5848 5850 5855 5860 5864 5867 5871 5874 5876 5879 5881 5883 5886 5888
5872 5871 5870 5868 5866 5865 5864 5863 5863 5863 5863 5863 5863 5862 5862 5862 5861 5859 5857 5856 5854 5851 5848 5845 5844 5843 5844 5844 5845 5846 5847 5849 5852 5855 5859 5862 5866 5869 5872 5875 5878 5881 5883 5885 5887
5872 5870 5869 5868 5866 5864 5863 5863 5862 5862 5862 5862 5862 5861 5861 5861 5860 5858 5857 5856 5854 5851 5849 5846 5844 5844 5844 5844 5845 5846 5848 5849 5852 5855 5858 5860 5864 5866 5871 5874 5878 5880 5882 5885 5887
5870 5870 5869 5867 5866 5864 5863 5862 5861 5861 5861 5860 5860 5860 5860 5858 5858 5858 5856 5855 5854 5852 5850 5848 5846 5845 5845 5845 5846 5847 5848 5849 5851 5854 5856 5860 5862 5866 5870 5873 5877 5879 5882 5884 5886
5869 5868 5867 5866 5865 5864 5862 5861 5860 5859 5859 5859 5859 5859 5858 5858 5857 5857 5856 5855 5854 5853 5851 5850 5849 5847 5847 5847 5847 5847 5848 5849 5851 5854 5857 5859 5862 5865 5869 5872 5876 5878 5881 5884 5886
5867 5866 5865 5865 5863 5862 5862 5860 5859 5858 5858 5857 5857 5859 5857 5857 5856 5856 5855 5855 5854 5853 5853 5852 5851 5850 5849 5850 5850 5850 5851 5852 5854 5856 5857 5860 5863 5866 5869 5872 5875 5877 5880 5883 5886
5865 5864 5864 5863 5862 5861 5860 5859 5859 5858 5856 5856 5856 5855 5855 5856 5856 5855 5854 5853 5854 5854 5852 5852 5853 5852 5852 5852 5852 5853 5854 5855 5856 5858 5859 5861 5863 5865 5868 5871 5875 5877 5880 5883 5885
5862 5862 5862 5861 5860 5859 5858 5857 5856 5856 5855 5854 5854 5853 5853 5853 5853 5853 5853 5853 5852 5853 5853 5853 5852 5853 5853 5853 5854 5854 5855 5857 5858 5858 5860 5861 5863 5865 5868 5871 5874 5876 5879 5882 5884
5859 5859 5859 5858 5857 5857 5856 5855 5854 5854 5853 5854 5853 5852 5852 5852 5851 5851 5852 5852 5851 5851 5852 5852 5852 5852 5853 5853 5854 5854 5855 5856 5858 5858 5859 5861 5862 5865 5867 5870 5873 5877 5879 5882 5884
5855 5855 5855 5855 5856 5855 5854 5853 5853 5852 5852 5852 5851 5851 5850 5850 5849 5849 5849 5850 5849 5849 5850 5850 5850 5850 5850 5851 5852 5853 5854 5855 5856 5857 5858 5859 5862 5863 5866 5869 5872 5875 5879 5881 5883
5850 5851 5851 5851 5852 5852 5852 5851 5851 5851 5851 5851 5849 5849 5848 5848 5847 5846 5846 5847 5847 5847 5849 5848 5847 5848 5849 5848 5849 5851 5851 5852 5853 5854 5856 5857 5859 5863 5865 5868 5871 5874 5877 5880 5882
5845 5846 5846 5846 5848 5848 5847 5848 5848 5849 5848 5848 5847 5846 5845 5844 5844 5843 5843 5843 5843 5844 5844 5844 5844 5844 5845 5845 5846 5847 5847 5848 5849 5851 5853 5853 5856 5860 5864 5866 5869 5872 5875 5877 5879
5839 5839 5840 5841 5843 5842 5843 5844 5845 5844 5844 5845 5844 5843 5842 5842 5841 5841 5840 5840 5840 5840 5839 5840 5840 5841 5841 5842 5842 5843 5843 5844 5846 5847 5849 5850 5854 5858 5859 5862 5866 5869 5872 5874 5876
5830 5831 5832 5835 5835 5835 5836 5838 5840 5839 5838 5838 5839 5838 5838 5837 5838 5837 5836 5836 5835 5835 5835 5835 5836 5837 5838 5838 5838 5839 5840 5841 5841 5843 5845 5846 5851 5853 5856 5858 5861 5865 5868 5871 5873
5820 5821 5822 5825 5826 5826 5828 5830 5832 5831 5831 5831 5832 5832 5832 5832 5832 5831 5832 5831 5831 5830 5830 5830 5831 5831 5832 5832 5835 5836 5835 5836 5837 5838 5839 5843 5848 5849 5850 5854 5857 5860 5863 5866 5869
5809 5810 5811 5814 5815 5816 5817 5821 5822 5822 5821 5822 5823 5824 5825 5826 5826 5826 5826 5826 5825 5825 5824 5825 5826 5826 5827 5828 5829 5829 5830 5831 5831 5833 5834 5838 5842 5844 5846 5849 5853 5856 5858 5860 5862
5799 5799 5801 5802 5804 5805 5807 5811 5812 5811 5812 5813 5813 5814 5816 5816 5818 5819 5821 5820 5819 5818 5819 5818 5820 5823 5822 5822 5821 5823 5824 5825 5825 5827 5828 5832 5837 5838 5840 5844 5847 5850 5853 5855 5857
5787 5788 5790 5790 5793 5795 5798 5800 5802 5801 5802 5802 5803 5804 5806 5807 5809 5810 5813 5813 5813 5812 5812 5811 5811 5814 5815 5816 5817 5817 5819 5819 5818 5822 5821 5824 5831 5832 5834 5837 5841 5844 5846 5848 5851
5776 5776 5778 5779 5780 5782 5784 5787 5788 5791 5790 5791 5792 5794 5795 5797 5799 5801 5802 5804 5804 5804 5804 5804 5802 5805 5808 5811 5809 5810 5812 5811 5811 5811 5815 5817 5826 5828 5830 5831 5833 5835 5837 5840 5842
5763 5764 5765 5766 5767 5769 5771 5773 5775 5778 5779 5777 5780 5780 5783 5785 5786 5789 5791 5793 5794 5794 5794 5793 5794 5795 5799 5801 5801 5801 5803 5803 5803 5803 5807 5810 5815 5822 5824 5823 5825 5826 5828 5830 5832
5749 5749 5752 5752 5754 5754 5756 5759 5760 5762 5766 5766 5765 5767 5767 5771 5774 5774 5778 5780 5783 5784 5783 5784 5784 5786 5788 5790 5790 5792 5794 5794 5794 5796 5796 5803 5803 5814 5814 5814 5813 5815 5817 5819 5820
5732 5734 5736 5739 5739 5741 5741 5743 5744 5746 5750 5750 5752 5751 5754 5755 5757 5762 5763 5766 5769 5770 5770 5771 5773 5773 5777 5778 5780 5780 5784 5786 5785 5788 5787 5787 5794 5804 5802 5799 5802 5803 5804 5806 5808
5712 5714 5716 5720 5722 5724 5725 5725 5727 5728 5730 5732 5734 5737 5736 5738 5740 5743 5749 5752 5755 5756 5756 5757 5758 5759 5762 5764 5765 5766 5773 5777 5778 5779 5778 5775 5784 5791 5790 5789 5789 5787 5790 5794 5798